AO-07 1 07530U 74089B 15113.35976532 -.00000028 00000-0 97332-4 0 9993 2 07530 101.5160 090.4732 0012378 051.1518 125.4645 12.53613613850380 FO-29 1 24278U 96046B 15112.76858133 .00000004 00000-0 41015-4 0 9998 2 24278 098.5353 089.0724 0349862 214.3709 220.9697 13.53049739922536 SO-33 1 25509U 98061B 15112.51109192 .00000816 00000-0 14698-3 0 9999 2 25509 031.4333 207.2148 0348160 305.2253 051.6247 14.29976209861443 RS-22 1 27939U 03042A 15113.33885722 .00001973 00000-0 36829-3 0 9999 2 27939 097.8351 277.6925 0012623 197.8702 162.2075 14.65968711618153 HO-68 1 36122U 09072B 15113.29115610 -.00000060 00000-0 -43517-4 0 9990 2 36122 100.2018 160.0426 0007284 244.1361 115.9003 13.16326005257234 AO-73 1 39444U 13066AE 15113.13346807 .00004160 00000-0 54046-3 0 9996 2 39444 097.7343 177.9040 0058873 316.1477 043.5069 14.80024819 75272 EO-79 1 40025U 14033R 15113.30917681 .00003832 00000-0 43418-3 0 9997 2 40025 097.9576 013.4883 0013509 010.8689 349.2816 14.86932810 45647 UO-11 1 14781U 84021B 15112.48058379 .00001686 00000-0 21734-3 0 9991 2 14781 097.8073 170.9200 0007260 249.1897 110.8539 14.82314471673773 AO-16 1 20439U 90005D 15112.41770426 .00000372 00000-0 15332-3 0 9992 2 20439 098.5375 049.4416 0010258 331.7303 166.7704 14.32526500318754 LO-19 1 20442U 90005G 15112.40399060 .00000344 00000-0 14243-3 0 9995 2 20442 098.5085 049.1537 0010996 318.3882 041.6465 14.32720422318955 AO-27 1 22825U 93061C 15112.51410444 .00000310 00000-0 13785-3 0 9992 2 22825 098.7038 062.6245 0009504 109.0706 002.4379 14.29866364124980 IO-26 1 22826U 93061D 15112.84120407 .00000372 00000-0 16100-3 0 9998 2 22826 098.6981 063.1259 0010077 101.2025 259.0290 14.30182107125175 GO-32 1 25397U 98043D 15112.45412904 .00000184 00000-0 99346-4 0 9997 2 25397 098.5147 064.6594 0002310 109.5166 037.5857 14.23537040871864 NO-44 1 26931U 01043C 15112.84017457 .00000313 00000-0 15231-3 0 9997 2 26931 067.0514 319.8612 0006053 264.3759 095.6652 14.30296663707889 SO-50 1 27607U 02058C 15113.17569972 .00001832 00000-0 28116-3 0 9999 2 27607 064.5567 006.7634 0078646 299.0141 060.3096 14.74657954663179 CO-55 1 27844U 03031E 15113.02155955 .00000607 00000-0 29556-3 0 9998 2 27844 098.6966 122.3340 0010954 099.6539 318.5832 14.21772508612608 CO-57 1 27848U 03031J 15112.48338603 .00000499 00000-0 24842-3 0 9996 2 27848 098.7064 121.6819 0010809 107.5200 047.4668 14.21422722612434 AO-51 1 28375U 04025K 15112.50883335 .00000486 00000-0 15605-3 0 9999 2 28375 098.2886 054.5665 0083610 137.1048 223.6703 14.41634548568474 CP3 1 31129U 07012N 15112.86468581 .00002269 00000-0 49646-3 0 9993 2 31129 097.9757 081.0481 0097936 125.6476 265.5237 14.55686411425078 CO-65 1 32785U 08021C 15112.53746443 .00003463 00000-0 39501-3 0 9999 2 32785 097.6544 158.1388 0012081 247.3208 251.1354 14.86688763377964 PRISM 1 33493U 09002B 15113.47598293 .00006890 00000-0 66938-3 0 9999 2 33493 098.2522 308.2213 0017201 147.1362 213.0949 14.92840345338413 SOHLA-1 1 33496U 09002E 15112.83593638 .00001168 00000-0 19738-3 0 9998 2 33496 098.2035 240.2763 0005947 351.5670 175.3336 14.71307736335031 TISAT-1 1 36799U 10035E 15113.28710519 .00007089 00000-0 77326-3 0 9999 2 36799 098.0125 213.0465 0013440 032.9843 032.8666 14.88194574258796 STUDSAT 1 36801U 10035G 15112.85423288 .00041534 00000-0 25557-2 0 9990 2 36801 098.0559 229.3362 0004874 324.6759 150.0676 15.09874930259616 ALMASAT-1 1 38078U 12006B 15112.21596399 .00071536 41202-5 12157-2 0 9993 2 38078 069.4595 021.2659 0493451 334.5574 023.1990 14.75550523166776 CUBEBUG-1 1 39153U 13018D 15113.22308255 .00003699 00000-0 50546-3 0 9992 2 39153 098.0172 197.7491 0018647 072.9205 287.4047 14.79070007107352 ESTCUBE-1 1 39161U 13021C 15113.44795240 .00002267 00000-0 37703-3 0 9993 2 39161 098.0719 196.8567 0010778 125.2634 234.9601 14.71037740105199 DUCHIFAT-1 1 40021U 14033M 15113.43284028 .00005635 00000-0 62316-3 0 9990 2 40021 097.9595 013.8625 0014232 010.3966 349.7576 14.87712240 45663 NANOSATCBR1 1 40024U 14033Q 15113.40830805 .00004643 00000-0 51946-3 0 9995 2 40024 097.9584 013.6729 0013595 010.8599 349.2928 14.87335090 45654 DTUSAT-2 1 40030U 14033W 15113.38777574 .00003903 00000-0 44625-3 0 9996 2 40030 097.9562 013.3486 0012282 005.1978 354.9360 14.86550378 45643 ANTELSAT 1 40034U 14033AA 15113.34550562 .00003040 00000-0 47308-3 0 9995 2 40034 097.9504 006.5838 0059384 296.4809 063.0304 14.72558007 45222 MET-2/21 1 22782U 93055A 15112.84636600 .00000070 00000-0 49928-4 0 9999 2 22782 082.5463 287.5840 0023530 115.2862 356.4905 13.83766649 92942 OKEAN-4 1 23317U 94066A 15113.17822801 .00002373 00000-0 26433-3 0 9997 2 23317 082.5360 137.0989 0021171 148.1229 326.6972 14.86548776109144 NOAA-14 1 23455U 94089A 15113.51294916 .00000097 00000-0 73662-4 0 9991 2 23455 098.7531 196.0864 0008624 231.9177 253.8606 14.14035681 47800 NOAA-15 1 25338U 98030A 15113.48282227 .00000366 00000-0 17347-3 0 9997 2 25338 098.7719 112.0863 0010030 333.4405 026.6259 14.25604904881047 RESURS 1 25394U 98043A 15112.85830263 .00000113 00000-0 67114-4 0 9990 2 25394 098.4600 069.9530 0002604 081.8520 330.9645 14.24454234872404 FENGYUN1 1 25730U 99025A 15112.53343605 .00003617 00000-0 19514-2 0 9990 2 25730 098.9416 077.4255 0018533 312.3263 113.7426 14.13231355821199 OKEAN-0 1 25860U 99039A 15112.53508101 .00001668 00000-0 25004-3 0 9999 2 25860 098.0891 080.5119 0001822 102.3821 005.0214 14.75968979847772 NOAA-16 1 26536U 00055A 15113.43265065 .00000076 00000-0 64710-4 0 9999 2 26536 098.9468 179.4506 0010991 033.0575 327.1281 14.13089572751921 NOAA-17 1 27453U 02032A 15113.51694615 .00000182 00000-0 95336-4 0 9997 2 27453 098.3372 102.2295 0011474 349.8827 010.2121 14.24874369666872 NOAA-18 1 28654U 05018A 15113.50735411 .00000274 00000-0 17440-3 0 9998 2 28654 099.1820 104.8244 0015287 112.4401 247.8391 14.12182959511356 NOAA-19 1 33591U 09005A 15113.45914627 .00000364 00000-0 22368-3 0 9991 2 33591 098.9852 063.2212 0013543 328.7384 031.2980 14.11917995319767 HUBBLE 1 20580U 90037B 15112.58851852 .00004541 00000-0 28241-3 0 9990 2 20580 028.4691 160.7121 0002891 006.7346 240.3195 15.07239061171413 ISS 1 25544U 98067A 15113.46767361 .00031361 00000-0 44638-3 0 9993 2 25544 051.6405 357.3979 0005292 254.1759 099.6668 15.56051565939517 CO-58 1 28895U 05043F 15113.26302806 .00002100 00000-0 42009-3 0 9993 2 28895 097.8224 303.9067 0018459 109.3553 250.9647 14.62693590505566 FALCON 1 30776U 07006E 15113.09712098 .00018797 00000-0 77464-3 0 9996 2 30776 035.4270 346.2222 0000901 224.9620 263.9718 15.23259392447891 MAST 1 31126U 07012K 15112.88273399 .00001697 00000-0 37419-3 0 9992 2 31126 097.9556 083.4469 0092474 108.0639 305.0233 14.55965363425445 CAPE1 1 31130U 07012P 15112.84029121 .00002064 00000-0 45527-3 0 9993 2 31130 097.9772 080.5125 0098590 127.5272 233.4937 14.55371821424838 COMPASS 1 32787U 08021E 15113.09423769 .00007243 00000-0 74810-3 0 9998 2 32787 097.6566 162.4518 0012058 230.5572 129.4580 14.90387113378302 AAUSAT2 1 32788U 08021F 15113.12611887 .00007228 00000-0 72823-3 0 9998 2 32788 097.6569 163.9038 0011742 227.7287 132.2937 14.91388676378392 DO-64 1 32789U 08021G 15112.75047671 .00017824 00000-0 14697-2 0 9998 2 32789 097.6794 173.6287 0010239 198.4778 309.4084 14.99047613378770 CO-66 1 32791U 08021J 15113.10852154 .00004769 00000-0 51789-3 0 9999 2 32791 097.6560 160.4751 0012747 237.8361 122.1621 14.88516413378129 RS-30 1 32953U 08025A 15113.42488386 .00000010 00000-0 -13620-7 0 9992 2 32953 082.5092 008.3010 0018232 198.0308 162.0132 12.43058714313802 METEOR-M 1 35865U 09049A 15113.18522293 .00000189 00000-0 10469-3 0 9993 2 35865 098.5060 155.4831 0001705 290.0640 070.0350 14.22015230290396 RS-38 1 35869U 09049E 15113.36945596 .00000107 00000-0 66983-4 0 9995 2 35869 098.4984 155.3188 0003823 280.0024 080.0725 14.22287552290469 JUGNU 1 37839U 11058B 15112.49018867 .00000579 00000-0 16674-3 0 9996 2 37839 019.9602 180.1648 0019054 151.7946 339.5542 14.12452642182338 SRMSAT 1 37841U 11058D 15112.48831471 .00000543 00000-0 15436-3 0 9998 2 37841 019.9708 205.7440 0012095 080.3852 013.8703 14.10467776182077 RAX-2 1 37853U 11061D 15112.48606725 .00014843 00000-0 91310-3 0 9990 2 37853 101.7162 296.1772 0198983 238.4783 149.1410 14.95193406188776 AUBIESAT 1 37854U 11061E 15113.14634503 .00018430 00000-0 10848-2 0 9992 2 37854 101.7220 300.3544 0194104 231.3264 195.6243 14.97244830188987 HRBE 1 37855U 11061F 15112.43274615 .00015475 00000-0 92710-3 0 9993 2 37855 101.7191 298.0425 0198691 236.2238 121.9905 14.96102303188812 HORYU-2 1 38340U 12025D 15113.13866155 .00004370 00000-0 67050-3 0 9999 2 38340 098.3085 081.6732 0010484 272.3636 087.6371 14.74115872157427 RS-40 1 38735U 12041C 15113.27912936 .00000040 00000-0 21992-3 0 9994 2 38735 082.4740 094.2155 0015864 303.4282 056.5284 12.42567721124098 PROITERES 1 38756U 12047B 15113.48347651 .00001711 00000-0 25752-3 0 9996 2 38756 098.2180 211.8539 0013483 111.3133 248.9524 14.75729991140935 BEESAT-3 1 39134U 13015E 15112.45154178 .00018026 00000-0 10592-2 0 9991 2 39134 064.8734 235.7359 0032992 259.7195 100.0208 15.11336748110272 BEESAT-2 1 39136U 13015G 15113.31012663 .00020208 00000-0 12242-2 0 9990 2 39136 064.8734 234.9643 0033813 258.3606 101.4223 15.09864719110370 ZACUBE-1 1 39417U 13066B 15112.47406606 .00003285 00000-0 43307-3 0 9991 2 39417 097.7344 177.0730 0059531 319.0495 040.6254 14.79530622 76394 TRITON-1 1 39427U 13066M 15112.46826532 .00002510 00000-0 41825-3 0 9998 2 39427 097.7203 166.4833 0115521 345.7682 014.0276 14.66515929 75691 DELFIN3XT 1 39428U 13066N 15112.15036063 .00004470 00000-0 75005-3 0 9991 2 39428 097.7202 164.5957 0124276 351.3017 008.6032 14.65158124 75530 GOMX-1 1 39430U 13066Q 15113.30848358 .00002395 00000-0 45200-3 0 9998 2 39430 097.7154 160.3684 0154348 003.1854 357.0312 14.57933931 75387 MO-76 1 39436U 13066W 15112.43378315 .00045918 00000-0 32862-2 0 9995 2 39436 097.7460 188.3548 0022607 289.4239 070.4543 15.04051279 77103 LO-74 1 39440U 13066AA 15112.48648762 .00002969 00000-0 43215-3 0 9995 2 39440 097.7291 172.8907 0081373 328.7148 030.9232 14.74366511 76129 PUCPSAT-1 1 39442U 13066AC 15113.16308352 .00005473 00000-0 59226-3 0 9993 2 39442 097.7422 184.4447 0031910 306.1074 053.7190 14.88300237 75689 SPROUT 1 39770U 14029E 15112.88330381 .00001992 00000-0 24743-3 0 9990 2 39770 097.8679 210.4698 0010514 029.5405 330.6408 14.83671958 49436 POPSAT-HIP1 1 40028U 14033U 15113.47687061 .00003746 00000-0 42591-3 0 9999 2 40028 097.9601 013.7193 0014711 007.2605 352.8838 14.86787678 45655 EO-80 1 40032U 14033Y 15113.39403370 .00003434 00000-0 39397-3 0 9998 2 40032 097.9575 013.3683 0012662 004.3787 355.7527 14.86495123 45649 VELOX-1 1 40057U 14034E 15113.34855295 .00003863 00000-0 57319-3 0 9998 2 40057 098.2183 190.5548 0012478 058.4120 301.8319 14.75605218 43790 DAURIA DX 1 1 40071U 14037C 15113.44532941 .00001838 00000-0 24875-3 0 9999 2 40071 098.3612 182.5994 0009743 060.7259 299.4932 14.80284028 42699 UKUBE-1 1 40074U 14037F 15113.47856375 .00003842 00000-0 49179-3 0 9996 2 40074 098.3623 183.2471 0005910 068.8339 291.3530 14.81959735 42737 HODOYOSHI-1 1 40299U 14070B 15113.47764131 .00007271 00000-0 35122-3 0 9993 2 40299 097.4576 195.6868 0012525 329.9571 124.7491 15.18877414 25515 CHUBUSAT-1 1 40300U 14070C 15113.49068582 .00007853 00000-0 39711-3 0 9999 2 40300 097.4547 195.1491 0021797 327.8047 088.0239 15.17109271 25485 QSAT-EOS 1 40301U 14070D 15113.45000721 .00013800 00000-0 71064-3 0 9993 2 40301 097.4508 194.5603 0031686 326.7960 161.8031 15.16076609 25444 TSUBAME 1 40302U 14070E 15113.43745442 .00008067 00000-0 45809-3 0 9995 2 40302 097.4492 193.7701 0042820 328.7938 164.3460 15.12394893 25398 FIREBIRD FU3 1 40377U 15003B 15113.00470811 .00020319 00000-0 10257-2 0 9994 2 40377 099.1225 136.2948 0161807 073.9504 287.9779 15.06377269 12249 FIREBIRD FU4 1 40378U 15003C 15113.00329365 .00020456 00000-0 10310-2 0 9994 2 40378 099.1236 136.2985 0162035 074.3246 287.6028 15.06399558 12244 GRIFEX 1 40379U 15003D 15113.28382435 .00016565 00000-0 84405-3 0 9995 2 40379 099.1214 136.6009 0163312 074.2627 287.6608 15.05938009 12280 LAMBDA-SAT 1 40458U 98067GB 15113.27222403 .00497542 00000-0 28116-2 0 9995 2 40458 051.6395 355.0900 0012340 234.3857 223.4412 15.77081058 17497 /EX
